Huntington, WV

3:04 PM EST on December 05, 2019 (GMT -0500)
Tri-State / Ferguson

Weather History for KHTS - October, 2019

Change the Weather History Date:

Monday, October 7, 2019

  Actual Average Record
Temperature  
Mean Temperature 59 °F 59 °F  
Max Temperature 63 °F 71 °F 93 °F (1941)
Min Temperature 54 °F 48 °F 29 °F (1964)
Degree Days  
Heating Degree Days 6 7  
Month to date heating degree days 6 41  
Since 1 July heating degree days 6 99  
Cooling Degree Days 0 1  
Month to date cooling degree days 59 9  
Year to date cooling degree days 1504 1120  
Growing Degree Days 6 (Base 50)    
Moisture  
Dew Point 57 °F    
Average Humidity 93    
Maximum Humidity 100    
Minimum Humidity 86    
Precipitation  
Precipitation 1.90 in 0.09 in 1.90 in (2019)
Month to date precipitation 2.78 0.61  
Year to date precipitation 37.25 33.64  
Snow  
Snow 0.00 in 0.00 in T in (1987)
Month to date snowfall 0.0 0.0  
Since 1 September snowfall 0.0 0.0  
Snow Depth 0.00 in    
Sea Level Pressure  
Sea Level Pressure 30.15 in    
Wind  
Wind Speed 5 mph (North)    
Max Wind Speed 15 mph    
Max Gust Speed 19 mph    
Visibility 6 miles    
Events Rain    
T = Trace of Precipitation, MM = Missing Value Source: NWS Daily Summary

Daily Weather History Graph

Daily Weather History Graph

Search for Another Location

Airport or City:

Astronomy

Oct. 07, 2019 Rise Set
Actual Time 7:31 AM EDT 7:04 PM EDT
Civil Twilight 7:04 AM EDT 7:30 PM EDT
Nautical Twilight 6:34 AM EDT 8:01 PM EDT
Astronomical Twilight 6:03 AM EDT 8:31 PM EDT
Moon 4:19 PM EDT (10/7) 1:28 AM EDT (10/7)
Length of Visible Light 12h 25m
Length of Day
11h 32m
Waxing Gibbous, 69% of the Moon is Illuminated
Oct 7
Waxing Gibbous
Oct 13
Full
Oct 21
Last Quarter
Oct 27
New
Nov 4
First Quarter

Hourly Weather History & Observations

Time (EDT) Temp. Dew Point Humidity Pressure Visibility Wind Dir Wind Speed Gust Speed Precip Events Conditions
12:21 AM 68.0 °F 66.0 °F 93% 30.13 in 2.5 mi NW 13.8 mph 19.6 mph 0.00 in Rain Heavy Rain
12:29 AM 64.9 °F 62.1 °F 90% 30.12 in 1.2 mi NW 10.4 mph 21.9 mph 0.19 in Rain Heavy Rain
12:51 AM 64.0 °F 62.1 °F 93% 30.11 in 1.2 mi NNW 4.6 mph - 0.50 in Rain Heavy Rain
1:17 AM 62.6 °F 62.6 °F 100% 30.13 in 1.2 mi Calm Calm - N/A Rain Heavy Rain
1:30 AM 63.0 °F 62.1 °F 97% 30.12 in 3.0 mi Calm Calm - 0.42 in Rain Light Rain
1:51 AM 63.0 °F 62.1 °F 97% 30.11 in 5.0 mi Calm Calm - 0.47 in Rain Light Rain
2:07 AM 63.0 °F 62.1 °F 97% 30.11 in 2.5 mi ESE 5.8 mph - 0.04 in Rain Heavy Rain
2:15 AM 63.0 °F 62.1 °F 97% 30.11 in 3.0 mi ESE 6.9 mph - 0.07 in Rain Rain
2:51 AM 63.0 °F 62.1 °F 97% 30.10 in 3.0 mi ESE 3.5 mph - 0.19 in Rain Rain
3:25 AM 63.0 °F 62.1 °F 97% 30.11 in 2.5 mi South 3.5 mph - 0.09 in Rain Rain
3:36 AM 62.6 °F 62.6 °F 100% 30.10 in 1.8 mi Calm Calm - N/A Rain Heavy Rain
3:49 AM 62.6 °F 62.6 °F 100% 30.10 in 1.2 mi Calm Calm - 0.24 in Rain Rain
3:51 AM 63.0 °F 62.1 °F 97% 30.08 in 1.2 mi Calm Calm - 0.24 in Rain Rain
4:07 AM 63.0 °F 63.0 °F 100% 30.10 in 2.0 mi Calm Calm - 0.08 in Rain Rain
4:16 AM 63.0 °F 62.1 °F 97% 30.11 in 2.0 mi NNW 6.9 mph - 0.12 in Rain Rain
4:51 AM 62.1 °F 61.0 °F 96% 30.09 in 3.0 mi NNW 6.9 mph - 0.29 in Rain Heavy Rain
4:59 AM 62.1 °F 61.0 °F 96% 30.11 in 2.5 mi North 9.2 mph - 0.06 in Rain Rain
5:06 AM 62.1 °F 60.1 °F 93% 30.11 in 3.0 mi North 10.4 mph - 0.09 in Rain Heavy Rain
5:14 AM 61.0 °F 60.1 °F 97% 30.11 in 3.0 mi North 9.2 mph - 0.12 in Rain Heavy Rain
5:24 AM 61.0 °F 60.1 °F 97% 30.11 in 4.0 mi North 8.1 mph - 0.16 in Rain Light Rain
5:51 AM 61.0 °F 60.1 °F 97% 30.10 in 6.0 mi North 8.1 mph - 0.22 in Rain Light Rain
6:51 AM 59.0 °F 57.0 °F 93% 30.13 in 10.0 mi NNW 5.8 mph - 0.06 in Rain Light Rain
7:51 AM 57.9 °F 57.0 °F 97% 30.14 in 10.0 mi NNW 6.9 mph - 0.04 in   Overcast
8:48 AM 55.4 °F 53.6 °F 94% 30.15 in 7.0 mi NNE 6.9 mph - 0.02 in   Overcast
8:51 AM 55.9 °F 54.0 °F 93% 30.15 in 9.0 mi NNE 8.1 mph - 0.02 in   Overcast
9:51 AM 57.0 °F 54.0 °F 89% 30.15 in 10.0 mi NNE 4.6 mph - 0.00 in Rain Light Rain
10:23 AM 57.0 °F 55.0 °F 93% 30.16 in 10.0 mi NNE 6.9 mph - 0.01 in Rain Light Rain
10:31 AM 57.0 °F 55.0 °F 93% 30.17 in 10.0 mi North 4.6 mph - 0.01 in Rain Light Rain
10:51 AM 57.0 °F 55.0 °F 93% 30.17 in 5.0 mi North 5.8 mph - 0.04 in Rain Rain
11:43 AM 55.9 °F 54.0 °F 93% 30.17 in 4.0 mi North 9.2 mph - 0.12 in Rain Light Rain
11:51 AM 55.9 °F 53.1 °F 90% 30.17 in 7.0 mi North 10.4 mph 17.3 mph 0.13 in Rain Light Rain
12:51 PM 55.9 °F 54.0 °F 93% 30.19 in 3.0 mi NNE 5.8 mph - 0.05 in Rain Rain
12:58 PM 55.9 °F 53.1 °F 90% 30.19 in 3.0 mi NNE 5.8 mph - 0.01 in Rain Rain
1:51 PM 55.0 °F 53.1 °F 93% 30.16 in 4.0 mi NNE 5.8 mph - 0.14 in Rain Rain
2:19 PM 55.9 °F 53.1 °F 90% 30.16 in 7.0 mi NE 4.6 mph - 0.05 in Rain Light Rain
2:51 PM 55.9 °F 54.0 °F 93% 30.14 in 10.0 mi NNE 4.6 mph - 0.07 in Rain Light Rain
3:36 PM 55.9 °F 53.1 °F 90% 30.16 in 10.0 mi North 9.2 mph - 0.00 in Rain Light Rain
3:41 PM 55.9 °F 53.1 °F 90% 30.16 in 9.0 mi North 9.2 mph - 0.00 in Rain Light Rain
3:51 PM 55.9 °F 53.1 °F 90% 30.16 in 6.0 mi North 10.4 mph - 0.01 in Rain Light Rain
3:57 PM 55.9 °F 53.1 °F 90% 30.16 in 7.0 mi North 9.2 mph - 0.00 in Rain Light Rain
4:51 PM 55.9 °F 53.1 °F 90% 30.16 in 6.0 mi North 5.8 mph - 0.00 in   Overcast
5:51 PM 55.9 °F 53.1 °F 90% 30.17 in 8.0 mi North 4.6 mph - N/A   Overcast
6:13 PM 55.9 °F 53.1 °F 90% 30.17 in 10.0 mi NE 3.5 mph - N/A   Overcast
6:51 PM 55.0 °F 53.1 °F 93% 30.19 in 10.0 mi NNW 5.8 mph - N/A   Overcast
7:51 PM - - N/A% 30.20 in - North - - N/A   Overcast
7:58 PM - - N/A% 30.20 in - North - - N/A   Unknown
8:23 PM 55.0 °F 53.1 °F 93% 30.21 in 10.0 mi North 4.6 mph - N/A   Overcast
8:51 PM 55.0 °F 53.1 °F 93% 30.20 in 10.0 mi North 5.8 mph - N/A   Overcast
8:58 PM 55.0 °F 53.1 °F 93% 30.21 in 10.0 mi NNE 4.6 mph - N/A   Overcast
9:30 PM 55.0 °F 53.1 °F 93% 30.21 in 10.0 mi NNE 4.6 mph - N/A   Overcast
9:51 PM 55.0 °F 53.1 °F 93% 30.22 in 10.0 mi North 5.8 mph - N/A   Overcast
10:00 PM 55.0 °F 53.1 °F 93% 30.22 in 10.0 mi North 5.8 mph - N/A   Overcast
10:51 PM 55.0 °F 53.1 °F 93% 30.22 in 10.0 mi Calm Calm - N/A   Overcast
11:51 PM 55.0 °F 52.0 °F 89% 30.22 in 10.0 mi NNE 3.5 mph - N/A   Overcast